{"data":{"norad_id":65924,"epoch":"2026-05-25T01:23:43.639872Z","epoch_age_seconds":69783,"freshness":"FRESH","line1":"1 65924U 25225Q   26145.05814398  .00010882  00000+0  37892-3 0  9998","line2":"2 65924  53.1588 170.7271 0001311  70.9603 289.1540 15.30206110 36102","mean_motion":15.3020611,"eccentricity":0.0001311,"inclination_deg":53.1588,"raan_deg":170.7271,"arg_perigee_deg":70.9603,"mean_anomaly_deg":289.154,"bstar":0.00037892,"rev_number":3610,"period_min":94.104969950747,"perigee_km":474.29835405676,"apogee_km":476.09529818597,"semimajor_km":6853.3338261214,"source":"CELESTRAK","updated_at":"2026-05-25T13:38:20.989095Z"}}